Temperature
8 7 6 6 7 7 7 7 7 8 8 7 6 5 6 6 5 5 4 4 4 3 3 3 3 3 4 4 5 5 5 6 6 7 7 7 8 8 8 8 8 9 9 9
7 6 6 7 7 7 7 6 6 7 7 6 5 5 5 5 4 4 4 3 3 3 2 2 2 3 3 3 4 4 5 5 5 6 6 7 7 7 8 8 8 8 8 8
5 5 6 6 6 6 6 5 5 5 5 6 4 4 5 5 4 4 3 3 2 2 2 2 2 2 2 3 3 3 4 4 5 5 5 6 6 7 7 7 8 8 8 8
5 5 6 5 5 5 5 5 5 5 4 3 4 3 4 4 3 3 3 3 2 2 1 1 1 1 1 2 2 3 3 4 4 4 4 5 5 6 6 7 7 7 7 7
5 4 4 4 4 4 4 5 5 4 4 3 3 3 3 3 2 2 2 2 1 1 1 1 1 1 1 2 2 2 3 3 3 4 4 4 5 5 5 6 6 6 7 7
4 4 4 3 4 4 4 4 4 4 3 2 3 3 2 2 2 2 2 2 1 1 0 0 1 1 1 1 2 2 2 2 3 3 3 3 4 4 5 5 5 6 6 6
4 4 3 3 3 4 3 2 2 2 2 3 4 3 2 1 1 1 1 1 1 0 -0 -0 -0 0 0 1 1 1 1 2 2 2 3 3 3 4 4 4 5 5 5 5
3 3 2 2 2 1 2 2 1 1 2 3 3 2 1 1 1 1 1 1 0 -0 -1 -1 -1 -0 -0 -0 0 1 1 1 1 2 2 2 2 3 3 3 4 4 4 5
1 2 2 2 2 2 2 2 2 1 1 1 2 2 1 1 0 0 0 -0 -1 -1 -1 -1 -1 -1 -1 -1 -0 -0 0 0 1 1 1 2 2 2 3 3 3 3 4 4
1 0 1 2 2 1 1 1 0 0 0 1 2 1 0 -1 -1 -1 -1 -1 -1 -2 -2 -2 -2 -2 -2 -1 -1 -1 -0 -0 -0 0 1 1 1 2 2 2 3 3 3 4
0 -1 0 1 -0 -0 -0 -0 -0 -0 0 0 0 -0 -0 -1 -1 -1 -2 -2 -2 -2 -2 -3 -2 -2 -2 -2 -2 -1 -1 -1 -1 -0 -0 0 1 1 1 2 2 2 3 3
-0 -1 -1 0 0 -0 -1 -1 -2 -2 -1 -0 -1 -1 -1 -2 -2 -2 -2 -2 -2 -3 -3 -3 -3 -3 -3 -3 -2 -2 -2 -1 -1 -1 -1 -0 -0 0 1 1 1 2 2 3
-1 -2 -2 -0 -1 -2 -2 -2 -2 -3 -2 -2 -2 -2 -1 -2 -2 -3 -3 -3 -3 -4 -4 -4 -4 -4 -3 -3 -3 -3 -2 -2 -2 -1 -1 -1 -1 -0 0 0 1 1 1 2
-1 -3 -3 -2 -1 -2 -2 -2 -3 -3 -3 -3 -3 -2 -2 -3 -4 -4 -4 -4 -4 -4 -4 -4 -4 -4 -4 -4 -4 -3 -3 -3 -2 -2 -2 -2 -1 -1 -1 -0 0 1 1 1
-2 -3 -3 -2 -2 -2 -3 -3 -3 -4 -4 -4 -3 -3 -3 -4 -4 -4 -4 -4 -5 -5 -5 -5 -5 -5 -5 -5 -5 -4 -4 -4 -3 -3 -3 -2 -2 -2 -1 -1 -1 -0 0 1
-3 -4 -3 -3 -2 -2 -3 -3 -3 -3 -4 -4 -4 -4 -4 -4 -4 -4 -5 -5 -5 -6 -6 -6 -6 -6 -6 -6 -5 -5 -5 -4 -4 -4 -3 -3 -3 -3 -2 -2 -1 -1 -0 0
-3 -4 -4 -3 -2 -3 -4 -5 -5 -5 -5 -5 -5 -5 -5 -5 -6 -6 -6 -6 -6 -7 -7 -7 -7 -7 -7 -7 -6 -6 -6 -5 -5 -5 -4 -4 -4 -3 -3 -3 -2 -2 -1 -1
-5 -5 -4 -4 -4 -5 -4 -4 -5 -5 -6 -6 -6 -6 -6 -6 -6 -6 -6 -7 -7 -7 -7 -7 -7 -7 -7 -7 -7 -6 -6 -6 -6 -5 -5 -5 -4 -4 -4 -3 -3 -2 -2 -1
-4 -5 -5 -4 -5 -4 -4 -5 -6 -6 -6 -6 -7 -6 -6 -6 -6 -6 -7 -7 -7 -8 -8 -8 -8 -7 -7 -7 -7 -7 -7 -6 -6 -6 -6 -5 -5 -5 -4 -4 -4 -3 -3 -2
-5 -5 -6 -5 -5 -5 -4 -6 -6 -6 -7 -6 -6 -7 -7 -7 -8 -8 -7 -8 -8 -8 -8 -8 -8 -8 -8 -8 -7 -7 -7 -7 -7 -7 -6 -6 -6 -5 -5 -5 -4 -4 -3 -3
-6 -6 -6 -6 -5 -5 -6 -6 -6 -6 -6 -6 -6 -7 -7 -8 -8 -8 -8 -8 -8 -8 -8 -8 -8 -8 -8 -8 -8 -8 -8 -7 -7 -7 -7 -7 -6 -6 -6 -5 -5 -4 -4 -4
-7 -7 -7 -6 -6 -6 -7 -7 -7 -7 -7 -7 -7 -7 -8 -8 -8 -8 -9 -9 -9 -9 -9 -9 -9 -9 -9 -9 -8 -8 -8 -8 -8 -7 -7 -7 -7 -6 -6 -6 -5 -5 -5 -5
-6 -6 -6 -6 -6 -6 -6 -7 -7 -7 -7 -7 -8 -8 -8 -9 -9 -9 -9 -9 -9 -9 -9 -9 -9 -9 -9 -9 -9 -9 -9 -8 -8 -8 -8 -7 -7 -7 -7 -6 -6 -6 -6 -5
-7 -7 -7 -7 -7 -6 -6 -6 -7 -7 -8 -8 -8 -8 -9 -9 -9 -9 -9 -10 -9 -9 -9 -9 -9 -9 -9 -9 -9 -9 -9 -9 -9 -8 -8 -8 -8 -7 -7 -7 -7 -7 -6 -6
-6 -8 -8 -8 -8 -7 -7 -7 -7 -8 -8 -8 -9 -9 -9 -10 -10 -10 -10 -10 -10 -10 -10 -10 -10 -10 -10 -10 -10 -10 -10 -9 -9 -9 -9 -8 -8 -8 -8 -7 -7 -7 -7 -6
-7 -8 -8 -8 -7 -8 -7 -7 -8 -8 -9 -9 -9 -9 -9 -10 -10 -10 -10 -10 -10 -10 -10 -10 -10 -10 -10 -10 -10 -10 -10 -10 -10 -9 -9 -9 -9 -9 -8 -8 -7 -7 -7 -7
Wind_Speed
1 1 2 3 4 6 7 8 9 7 1 2 4 5 4 3 2 1 1 1 1 2 3 3 4 4 5 5 5 5 5 4 4 3 2 1 2 1 1 2 2 2 2 2
2 3 5 5 4 6 7 8 8 5 2 3 5 7 5 3 3 2 1 1 1 2 3 4 4 4 5 5 5 5 5 4 4 3 2 1 1 0 1 2 3 3 2 2
3 3 4 5 5 6 7 6 6 7 6 5 5 7 4 3 4 2 1 1 2 2 3 4 4 4 4 5 5 4 5 5 4 4 3 2 1 1 2 2 2 3 2 1
3 3 5 5 5 5 7 4 7 8 5 4 3 4 3 4 3 2 1 1 2 2 3 3 4 4 4 4 4 4 4 5 5 4 3 2 2 1 1 1 1 3 2 1
2 2 4 5 6 6 6 6 8 8 6 5 5 5 4 4 3 3 1 0 1 2 3 4 4 4 4 4 3 3 4 4 5 4 4 2 1 1 1 1 1 2 3 2
4 1 2 4 6 5 6 6 7 5 4 6 7 6 3 3 3 2 1 1 1 2 3 4 5 5 4 4 3 3 4 4 5 4 4 3 2 1 1 1 1 2 2 2
3 2 1 3 5 3 4 2 2 2 4 5 3 4 2 1 2 2 1 1 2 3 3 4 5 6 6 5 4 3 4 4 5 5 4 4 3 1 1 1 0 1 2 2
4 3 1 2 2 3 4 2 2 3 4 3 2 4 2 2 2 3 3 3 4 4 4 5 5 5 5 6 5 5 4 4 4 5 5 4 3 1 1 1 0 1 2 2
4 3 2 2 2 3 4 2 1 2 4 4 4 2 1 3 4 4 4 4 4 4 4 5 5 5 5 6 6 5 5 5 4 5 5 5 3 2 2 2 1 1 1 2
4 5 4 1 0 1 3 3 2 2 3 4 4 2 1 1 1 2 2 3 4 4 5 5 5 5 5 5 5 6 5 5 5 5 5 5 4 2 2 2 1 2 2 2
4 3 4 1 1 1 0 0 2 3 3 2 3 2 3 2 1 0 1 3 4 4 5 5 6 5 5 5 5 5 5 5 5 5 5 5 5 3 2 2 2 2 2 2
3 3 4 3 2 3 1 1 1 2 3 3 3 3 3 5 4 4 3 4 4 5 5 5 6 6 6 6 6 6 6 6 5 5 5 5 5 4 3 3 3 2 2 2
2 1 4 2 1 2 1 1 2 2 2 3 3 4 2 5 6 5 5 5 5 5 6 6 6 6 6 7 7 7 7 7 6 5 5 6 5 4 4 4 3 3 2 3
2 2 3 4 4 2 3 3 2 2 3 4 5 7 5 5 6 6 6 6 5 5 6 7 6 6 7 7 7 7 8 8 7 6 6 6 6 5 4 4 4 4 3 3
1 3 4 7 7 6 6 6 4 5 6 6 7 7 8 6 5 6 5 6 6 6 8 8 8 7 7 7 7 7 8 8 8 7 7 7 6 6 5 4 4 4 4 4
1 3 4 6 6 6 7 7 6 6 7 8 9 10 7 6 5 5 6 6 6 7 8 8 8 8 8 8 8 8 8 8 8 7 7 7 7 6 6 5 5 5 4 3
2 2 3 4 3 5 6 5 5 3 3 4 7 7 5 6 6 5 6 6 6 7 8 8 8 8 8 8 8 8 8 8 7 7 7 7 7 7 7 7 5 5 5 4
2 2 3 3 3 5 5 1 1 2 4 3 4 4 5 5 5 4 4 4 6 7 8 8 8 9 8 8 8 8 8 7 8 8 7 7 7 7 7 7 6 6 5 5
2 3 3 2 3 6 2 1 1 1 4 2 3 5 5 5 5 3 4 5 5 6 7 7 7 8 8 8 8 9 8 8 8 8 8 8 7 8 7 7 7 6 6 6
1 1 2 3 3 5 2 1 1 1 4 2 2 4 4 5 4 4 5 6 7 7 7 7 7 7 7 8 8 8 8 8 8 9 8 8 8 8 8 8 7 7 6 6
1 2 4 5 5 5 1 0 1 1 4 3 2 2 3 2 4 5 6 6 6 7 7 7 7 7 7 7 8 8 8 8 9 9 9 8 8 8 8 7 7 6 6 6
4 3 4 3 5 6 2 2 3 4 2 2 2 2 3 4 5 5 6 6 7 8 8 7 7 7 7 7 7 8 9 9 9 9 9 8 8 7 7 6 7 6 6 6
5 5 3 5 6 2 4 3 2 0 2 3 3 4 3 5 5 6 6 6 6 7 7 7 7 8 8 7 7 9 10 9 9 9 9 8 8 7 7 6 6 6 5 5
3 2 3 4 5 3 3 2 1 2 3 3 3 4 3 5 6 6 6 6 7 7 7 7 7 8 9 8 9 8 9 9 9 9 9 8 7 7 6 5 5 5 5 5
3 3 3 5 4 3 3 3 2 3 3 3 4 3 4 4 6 5 6 6 6 7 7 6 7 8 9 9 9 9 9 9 9 8 8 8 7 6 6 5 5 6 6 6
4 4 4 5 3 3 4 3 2 3 4 4 4 5 4 4 5 6 6 5 6 7 7 7 8 9 9 9 9 9 8 8 8 8 7 6 6 6 5 5 6 9 9 11
Wind_Direction
209 238 272 269 249 269 277 277 282 288 298 267 247 263 252 199 160 144 69 58 38 34 29 26 20 12 14 12 16 19 18 19 20 16 20 31 15 6 22 29 37 26 48 59
239 248 281 299 295 288 278 277 284 291 303 284 268 269 256 181 154 135 120 78 39 27 23 23 17 18 17 14 15 14 16 10 15 11 359 319 307 281 12 27 28 20 35 63
255 299 310 295 292 290 276 263 281 291 303 262 266 276 236 153 127 107 74 56 49 40 16 8 10 10 11 10 9 1 7 6 8 6 3 10 24 37 32 17 12 3 10 56
267 296 301 289 286 290 274 292 286 279 278 263 237 272 244 183 165 190 219 36 36 32 24 12 5 1 3 3 3 3 10 7 6 4 10 26 25 15 334 328 333 341 2 27
291 343 318 290 290 281 268 294 282 267 254 264 237 239 259 168 211 235 224 112 33 28 25 11 360 354 357 0 1 1 10 9 6 5 358 358 359 340 341 353 345 341 356 6
271 290 338 324 307 282 292 293 277 242 239 248 224 213 263 180 212 222 234 41 32 30 23 6 1 1 359 2 4 7 11 9 7 4 353 348 346 348 18 350 347 340 339 348
283 196 100 339 314 307 322 324 305 258 221 240 191 206 239 83 69 139 147 20 25 23 17 4 5 4 357 0 4 5 6 6 2 357 351 339 330 305 189 236 308 319 316 317
318 293 81 31 357 322 295 263 233 261 267 289 225 219 191 109 73 74 69 48 32 21 8 4 3 358 354 355 360 3 2 353 352 350 346 336 333 330 308 299 272 286 296 298
323 302 8 37 11 330 325 327 309 273 280 270 243 202 136 48 55 45 41 35 21 9 5 1 0 359 354 355 353 353 353 344 344 344 344 338 334 338 330 311 298 278 290 313
320 293 299 11 7 309 317 329 333 262 276 272 272 273 296 346 330 8 14 5 356 355 0 358 355 354 354 352 350 353 350 341 345 344 341 337 330 326 323 306 291 277 288 307
321 290 296 287 216 265 55 329 286 275 263 265 282 283 21 48 39 34 352 352 357 353 353 357 354 353 355 354 353 352 349 345 342 342 340 334 328 323 327 302 289 290 299 308
341 310 286 265 91 53 103 253 219 236 278 265 267 275 49 50 39 36 17 8 1 357 359 357 353 354 356 355 354 352 350 342 337 339 336 327 330 329 327 321 310 314 301 299
357 315 304 295 24 27 336 307 285 256 274 262 257 258 34 36 25 19 9 357 357 2 1 358 356 354 354 354 351 350 345 339 339 342 336 332 335 331 325 318 312 305 292 282
351 252 223 253 292 319 288 291 276 231 237 261 250 267 307 341 343 345 351 349 352 358 1 359 355 352 352 350 348 345 340 340 341 340 337 332 330 323 318 314 311 301 292 277
299 268 263 273 284 284 281 284 260 231 233 246 267 277 295 316 324 334 343 345 350 353 354 352 349 348 347 345 343 340 338 340 339 336 334 329 327 327 321 316 311 302 292 287
244 273 295 280 262 273 280 279 266 253 251 256 273 281 300 323 338 344 345 344 345 342 343 343 344 344 343 341 337 335 334 333 333 329 327 327 329 330 325 314 309 303 291 282
238 245 279 277 292 313 282 261 233 237 242 241 257 275 321 334 339 334 333 339 336 334 336 337 336 335 333 331 330 327 326 328 329 325 324 327 329 326 322 319 310 303 298 287
216 250 256 284 321 258 241 123 153 231 268 263 277 306 325 319 315 320 340 342 337 336 333 332 332 331 328 329 329 327 325 327 326 325 324 326 326 319 316 314 308 300 295 286
213 204 251 264 266 265 244 168 117 218 283 275 274 302 319 326 317 318 0 360 339 331 326 323 324 322 325 329 330 328 326 327 327 326 325 325 322 316 313 309 304 299 293 288
260 192 231 250 258 257 259 75 71 102 279 309 302 304 322 341 318 303 342 340 331 329 328 325 326 326 328 329 329 326 324 326 325 322 319 317 312 306 303 303 301 298 292 288
200 219 226 244 248 261 253 170 115 202 265 323 321 307 321 296 273 298 322 327 326 325 326 329 329 328 325 325 326 323 322 320 318 318 315 312 309 304 298 298 299 297 296 290
191 203 211 221 236 255 151 132 193 239 318 336 333 329 314 297 301 311 320 325 328 327 329 333 332 328 326 327 326 321 318 315 317 316 313 311 309 307 306 301 299 297 293 287
204 206 207 209 225 239 166 185 223 308 306 312 321 320 310 304 305 312 317 320 320 321 326 330 328 323 325 327 326 318 316 317 316 315 311 310 311 309 306 302 300 299 294 289
217 211 237 263 263 257 229 235 276 292 285 295 303 307 309 299 301 307 312 315 317 318 321 325 325 323 322 324 324 316 316 318 315 313 312 312 310 308 306 303 300 296 291 287
231 186 227 250 271 293 255 250 281 298 299 304 309 299 291 295 300 304 307 309 312 315 319 321 318 315 316 320 321 321 321 320 318 314 313 314 312 307 305 302 295 293 281 278
210 195 207 239 241 242 268 267 269 276 284 289 295 298 297 290 291 299 303 306 309 312 317 319 318 317 317 318 318 320 322 321 317 317 317 316 314 311 309 307 310 307 304 305
Height
1506 1509 1509 1508 1507 1506 1505 1505 1504 1501 1500 1501 1503 1503 1502 1503 1504 1505 1506 1507 1507 1508 1508 1507 1506 1505 1504 1503 1503 1503 1503 1503 1503 1504 1504 1506 1508 1509 1511 1513 1514 1516 1518 1520
1507 1509 1508 1507 1506 1506 1505 1505 1504 1502 1501 1502 1503 1502 1500 1500 1502 1504 1506 1506 1506 1506 1506 1505 1504 1503 1502 1501 1501 1501 1502 1502 1502 1502 1502 1504 1506 1507 1509 1510 1512 1513 1515 1518
1510 1510 1508 1507 1507 1507 1505 1506 1506 1506 1503 1501 1504 1502 1497 1499 1501 1503 1505 1506 1506 1505 1505 1504 1503 1502 1501 1500 1500 1500 1499 1500 1501 1501 1501 1502 1503 1504 1506 1507 1509 1511 1513 1515
1509 1509 1509 1508 1507 1508 1507 1503 1504 1504 1508 1507 1505 1510 1499 1499 1501 1502 1503 1504 1504 1504 1504 1503 1502 1501 1500 1499 1499 1498 1498 1498 1499 1499 1499 1499 1500 1501 1502 1504 1505 1508 1510 1512
1510 1510 1510 1509 1508 1508 1506 1504 1503 1502 1506 1508 1505 1508 1502 1499 1501 1501 1502 1503 1503 1503 1502 1502 1501 1500 1499 1498 1497 1497 1496 1496 1496 1497 1497 1497 1498 1500 1500 1501 1503 1505 1506 1509
1511 1510 1511 1511 1509 1506 1505 1503 1500 1501 1505 1510 1501 1505 1502 1500 1500 1500 1500 1501 1502 1502 1502 1501 1500 1499 1498 1497 1496 1495 1495 1495 1494 1495 1495 1495 1496 1497 1498 1499 1500 1501 1504 1506
1509 1510 1511 1512 1510 1507 1507 1510 1509 1507 1507 1502 1494 1499 1504 1500 1499 1499 1500 1501 1501 1501 1501 1500 1499 1497 1496 1495 1494 1494 1494 1492 1493 1493 1493 1494 1494 1495 1495 1496 1497 1498 1500 1502
1515 1513 1513 1514 1514 1514 1510 1511 1516 1517 1506 1498 1496 1499 1504 1500 1499 1499 1500 1501 1501 1500 1499 1499 1497 1496 1495 1493 1492 1492 1492 1491 1491 1491 1491 1492 1491 1492 1493 1493 1494 1496 1497 1499
1522 1517 1514 1513 1514 1514 1512 1512 1512 1516 1510 1510 1500 1498 1501 1499 1500 1500 1500 1500 1500 1500 1499 1498 1497 1496 1494 1493 1491 1490 1490 1490 1490 1489 1489 1489 1490 1490 1490 1491 1492 1493 1494 1496
1525 1524 1516 1514 1515 1515 1516 1515 1517 1516 1515 1509 1500 1500 1503 1504 1502 1501 1501 1501 1501 1500 1499 1498 1496 1495 1493 1492 1491 1490 1489 1488 1488 1488 1487 1486 1487 1487 1487 1489 1489 1490 1492 1493
1526 1527 1520 1516 1519 1519 1519 1520 1519 1517 1513 1513 1510 1511 1505 1504 1503 1502 1502 1502 1501 1500 1499 1497 1495 1494 1492 1491 1490 1489 1488 1487 1486 1485 1485 1484 1484 1484 1485 1486 1487 1487 1488 1489
1528 1528 1525 1518 1517 1517 1519 1521 1523 1526 1520 1513 1515 1518 1506 1505 1504 1503 1503 1502 1501 1500 1498 1497 1495 1493 1491 1490 1489 1487 1486 1485 1484 1483 1482 1482 1481 1481 1481 1482 1483 1483 1484 1485
1530 1532 1531 1520 1522 1523 1522 1522 1523 1523 1522 1520 1518 1517 1506 1506 1505 1505 1504 1502 1501 1500 1498 1496 1494 1492 1490 1488 1487 1485 1484 1483 1481 1480 1480 1479 1477 1477 1477 1478 1479 1480 1480 1482
1530 1533 1534 1530 1524 1524 1524 1523 1522 1523 1525 1521 1517 1512 1509 1508 1507 1505 1504 1503 1501 1499 1497 1496 1494 1492 1490 1487 1485 1483 1482 1480 1478 1478 1477 1476 1475 1474 1474 1474 1475 1476 1476 1477
1531 1534 1530 1526 1523 1522 1522 1522 1520 1522 1521 1521 1514 1512 1509 1508 1507 1506 1504 1502 1500 1498 1497 1495 1493 1491 1488 1486 1484 1482 1480 1478 1476 1475 1474 1473 1472 1471 1470 1470 1471 1472 1472 1472
1531 1533 1530 1526 1520 1519 1519 1518 1518 1517 1518 1517 1513 1512 1508 1507 1506 1505 1504 1502 1500 1498 1497 1494 1492 1489 1487 1485 1482 1480 1478 1476 1474 1472 1471 1470 1468 1467 1467 1466 1467 1467 1467 1468
1531 1533 1532 1525 1519 1520 1520 1517 1517 1517 1516 1516 1515 1512 1508 1507 1506 1505 1504 1502 1500 1498 1496 1493 1491 1488 1486 1483 1481 1479 1477 1474 1472 1470 1468 1467 1466 1464 1463 1462 1462 1462 1463 1463
1531 1532 1531 1527 1526 1529 1518 1513 1513 1514 1514 1513 1512 1510 1509 1507 1506 1504 1503 1501 1499 1497 1495 1492 1489 1486 1484 1482 1479 1477 1474 1472 1469 1467 1465 1464 1462 1461 1460 1459 1459 1459 1458 1459
1528 1530 1530 1528 1527 1518 1515 1513 1514 1516 1514 1511 1510 1508 1507 1506 1503 1502 1501 1500 1498 1496 1493 1491 1488 1485 1482 1479 1477 1474 1471 1469 1466 1464 1462 1460 1459 1458 1457 1456 1455 1455 1454 1454
1528 1529 1532 1527 1527 1521 1514 1513 1511 1515 1515 1509 1507 1507 1506 1505 1505 1502 1500 1498 1495 1493 1491 1488 1485 1482 1479 1477 1474 1471 1468 1466 1463 1461 1459 1458 1456 1455 1453 1452 1451 1450 1450 1449
1531 1531 1531 1528 1524 1518 1514 1512 1512 1517 1513 1507 1506 1505 1505 1505 1504 1502 1498 1496 1493 1491 1488 1485 1482 1480 1477 1474 1471 1468 1465 1463 1461 1458 1456 1455 1453 1451 1449 1448 1447 1446 1445 1445
1527 1528 1527 1525 1523 1519 1512 1512 1513 1511 1507 1506 1505 1504 1503 1502 1500 1498 1496 1493 1491 1488 1485 1482 1479 1477 1474 1472 1469 1465 1462 1460 1457 1455 1453 1451 1449 1447 1445 1444 1442 1442 1441 1441
1520 1519 1518 1518 1515 1509 1508 1507 1507 1506 1505 1504 1503 1502 1501 1499 1497 1495 1493 1490 1488 1485 1483 1480 1477 1474 1471 1469 1466 1462 1459 1457 1454 1451 1449 1446 1444 1443 1441 1439 1438 1438 1437 1436
1515 1514 1514 1512 1507 1506 1506 1505 1505 1504 1503 1502 1501 1499 1498 1496 1494 1492 1490 1488 1485 1483 1480 1477 1474 1471 1468 1466 1463 1460 1456 1453 1450 1447 1445 1442 1440 1438 1437 1436 1435 1434 1433 1432
1510 1512 1511 1510 1506 1504 1502 1502 1501 1501 1500 1499 1497 1496 1495 1493 1491 1489 1487 1485 1482 1480 1478 1475 1472 1469 1465 1462 1459 1456 1453 1450 1447 1444 1441 1439 1437 1435 1433 1432 1431 1430 1429 1429
1506 1507 1509 1505 1502 1502 1499 1498 1498 1497 1496 1495 1494 1492 1491 1490 1488 1486 1484 1482 1480 1477 1475 1472 1469 1466 1463 1459 1456 1453 1450 1447 1444 1441 1438 1436 1434 1432 1431 1429 1427 1426 1425 1424